QPF
0.01 0.01 0.01 0.02 0.02 0.01 0.01 0.01 0.02 0.03 0.03 0.03 0.03 0.03 0.03 0.03 0.03 0.03 0.03 0.04 0.05 0.05 0.05 0.06 0.07 0.07 0.06 0.06 0.06 0.06 0.06 0.07 0.08 0.06 0.05 0.05 0.05 0.05 0.04 0.05 0.06 0.04 0.03
0.02 0.01 0.01 0.01 0.01 0.01 0.02 0.01 0.02 0.02 0.02 0.03 0.04 0.04 0.04 0.04 0.03 0.04 0.04 0.05 0.07 0.07 0.06 0.07 0.08 0.09 0.10 0.09 0.09 0.08 0.07 0.07 0.07 0.08 0.07 0.06 0.06 0.05 0.06 0.06 0.07 0.06 0.04
0.01 0.02 0.02 0.01 0.01 0.02 0.02 0.02 0.02 0.03 0.03 0.03 0.03 0.04 0.05 0.05 0.04 0.04 0.05 0.04 0.04 0.04 0.05 0.07 0.08 0.09 0.10 0.10 0.09 0.08 0.07 0.05 0.06 0.07 0.08 0.07 0.06 0.05 0.07 0.06 0.07 0.09 0.05
0.02 0.02 0.02 0.01 0.02 0.03 0.03 0.03 0.03 0.03 0.03 0.03 0.03 0.04 0.04 0.04 0.04 0.04 0.04 0.03 0.03 0.04 0.05 0.06 0.06 0.06 0.06 0.08 0.08 0.08 0.07 0.06 0.05 0.05 0.06 0.06 0.06 0.05 0.06 0.07 0.08 0.09 0.07
0.02 0.02 0.01 0.01 0.02 0.03 0.03 0.03 0.04 0.04 0.03 0.03 0.03 0.02 0.02 0.02 0.02 0.03 0.05 0.06 0.07 0.07 0.06 0.05 0.04 0.05 0.05 0.05 0.04 0.06 0.07 0.06 0.06 0.07 0.06 0.07 0.06 0.07 0.06 0.05 0.06 0.06 0.06
0.03 0.02 0.02 0.02 0.03 0.03 0.04 0.04 0.05 0.04 0.04 0.05 0.04 0.04 0.04 0.03 0.04 0.04 0.05 0.06 0.07 0.06 0.06 0.06 0.04 0.03 0.03 0.02 0.01 0.02 0.02 0.04 0.08 0.08 0.07 0.07 0.07 0.06 0.05 0.05 0.06 0.06 0.06
0.03 0.03 0.02 0.02 0.03 0.05 0.05 0.06 0.06 0.06 0.07 0.07 0.06 0.06 0.06 0.06 0.05 0.04 0.04 0.04 0.04 0.05 0.06 0.05 0.04 0.02 0.03 0.02 0.02 0.01 0.01 0.02 0.04 0.06 0.07 0.06 0.06 0.06 0.05 0.04 0.05 0.06 0.06
0.03 0.05 0.05 0.05 0.06 0.07 0.08 0.09 0.09 0.08 0.08 0.09 0.10 0.09 0.08 0.07 0.07 0.04 0.03 0.03 0.03 0.04 0.05 0.05 0.05 0.04 0.03 0.03 0.03 0.03 0.03 0.03 0.02 0.02 0.04 0.05 0.04 0.04 0.04 0.04 0.04 0.04 0.04
0.09 0.11 0.11 0.11 0.08 0.07 0.08 0.09 0.08 0.08 0.08 0.09 0.10 0.09 0.08 0.08 0.07 0.05 0.04 0.04 0.03 0.03 0.04 0.04 0.04 0.04 0.03 0.02 0.02 0.03 0.04 0.04 0.02 0.01 0.01 0.02 0.03 0.02 0.02 0.03 0.04 0.04 0.03
0.04 0.06 0.06 0.05 0.04 0.04 0.05 0.06 0.07 0.07 0.08 0.08 0.08 0.08 0.08 0.07 0.07 0.06 0.05 0.04 0.03 0.03 0.04 0.04 0.03 0.02 0.01 0.01 0.02 0.03 0.04 0.03 0.03 0.02 0.02 0.02 0.03 0.02 0.02 0.02 0.03 0.04 0.04
0.01 0.01 0.01 0.02 0.03 0.03 0.03 0.04 0.06 0.07 0.07 0.07 0.07 0.06 0.06 0.05 0.04 0.03 0.03 0.03 0.03 0.03 0.03 0.03 0.03 0.02 0.01 0.01 0.01 0.02 0.03 0.04 0.03 0.04 0.04 0.04 0.03 0.04 0.03 0.03 0.04 0.05 0.05
0.01 0.01 0.01 0.02 0.02 0.02 0.04 0.04 0.04 0.05 0.04 0.04 0.03 0.03 0.03 0.02 0.03 0.03 0.02 0.03 0.03 0.02 0.03 0.03 0.03 0.03 0.02 0.01 0.01 0.01 0.01 0.02 0.04 0.05 0.05 0.05 0.04 0.04 0.04 0.03 0.04 0.04 0.05
0.02 0.02 0.02 0.02 0.02 0.02 0.02 0.02 0.02 0.02 0.01 0.01 0.01 0.02 0.02 0.02 0.03 0.03 0.03 0.03 0.03 0.03 0.03 0.03 0.02 0.02 0.01 0.01 0.01 0.01 0.01 0.02 0.03 0.05 0.05 0.05 0.03 0.04 0.04 0.04 0.04 0.04 0.05
0.02 0.02 0.02 0.03 0.02 0.02 0.02 0.02 0.01 0.01 0.01 0.01 0.01 0.02 0.02 0.02 0.03 0.03 0.04 0.04 0.04 0.03 0.02 0.02 0.02 0.01 0.01 0.01 0.02 0.03 0.03 0.03 0.02 0.02 0.03 0.04 0.04 0.05 0.05 0.04 0.03 0.04 0.04
0.02 0.02 0.02 0.01 0.01 0.02 0.01 0.01 0.02 0.01 0.02 0.01 0.01 0.02 0.03 0.03 0.04 0.03 0.03 0.03 0.03 0.03 0.02 0.02 0.02 0.02 0.02 0.02 0.03 0.02 0.02 0.03 0.02 0.02 0.02 0.03 0.04 0.05 0.05 0.06 0.05 0.06 0.05
0.02 0.01 0.01 0.02 0.03 0.02 0.02 0.02 0.03 0.02 0.02 0.02 0.02 0.02 0.03 0.03 0.03 0.03 0.03 0.03 0.03 0.03 0.03 0.03 0.04 0.04 0.04 0.04 0.03 0.03 0.02 0.02 0.02 0.03 0.03 0.03 0.03 0.05 0.05 0.06 0.07 0.08 0.06
0.03 0.02 0.03 0.03 0.03 0.02 0.02 0.02 0.02 0.02 0.02 0.02 0.03 0.03 0.04 0.04 0.04 0.04 0.04 0.03 0.03 0.02 0.03 0.03 0.04 0.05 0.04 0.04 0.04 0.04 0.04 0.04 0.04 0.03 0.03 0.03 0.03 0.04 0.05 0.05 0.06 0.09 0.08
0.04 0.05 0.04 0.04 0.03 0.03 0.03 0.03 0.03 0.02 0.03 0.03 0.04 0.05 0.04 0.04 0.03 0.03 0.03 0.03 0.03 0.03 0.03 0.03 0.03 0.04 0.04 0.04 0.03 0.03 0.04 0.04 0.05 0.05 0.04 0.04 0.04 0.06 0.05 0.06 0.06 0.07 0.07
0.06 0.06 0.06 0.08 0.08 0.07 0.07 0.07 0.07 0.07 0.07 0.07 0.06 0.05 0.04 0.03 0.02 0.02 0.02 0.02 0.03 0.04 0.04 0.03 0.03 0.04 0.04 0.04 0.04 0.03 0.03 0.03 0.04 0.04 0.04 0.03 0.03 0.04 0.05 0.07 0.07 0.07 0.07
0.05 0.05 0.05 0.06 0.08 0.10 0.10 0.08 0.07 0.07 0.08 0.06 0.05 0.04 0.03 0.03 0.03 0.02 0.02 0.02 0.02 0.02 0.02 0.03 0.03 0.03 0.04 0.04 0.03 0.03 0.03 0.03 0.04 0.04 0.03 0.03 0.03 0.03 0.04 0.04 0.05 0.06 0.06
0.03 0.03 0.03 0.02 0.02 0.03 0.03 0.03 0.03 0.03 0.03 0.03 0.03 0.04 0.04 0.03 0.03 0.02 0.02 0.02 0.02 0.02 0.02 0.02 0.03 0.04 0.04 0.04 0.03 0.04 0.04 0.04 0.04 0.04 0.03 0.03 0.03 0.03 0.03 0.03 0.03 0.03 0.04
0.02 0.02 0.02 0.02 0.02 0.02 0.03 0.03 0.03 0.04 0.03 0.04 0.04 0.05 0.05 0.04 0.03 0.03 0.03 0.03 0.03 0.03 0.03 0.02 0.02 0.03 0.04 0.05 0.05 0.04 0.03 0.04 0.05 0.06 0.06 0.06 0.06 0.05 0.05 0.04 0.04 0.04 0.04
0.02 0.02 0.02 0.03 0.03 0.03 0.03 0.02 0.02 0.03 0.03 0.04 0.04 0.04 0.03 0.03 0.03 0.03 0.03 0.03 0.03 0.02 0.02 0.02 0.02 0.02 0.03 0.04 0.06 0.08 0.07 0.05 0.04 0.04 0.04 0.05 0.06 0.05 0.04 0.04 0.04 0.04 0.05
0.01 0.01 0.02 0.02 0.03 0.03 0.03 0.03 0.02 0.03 0.03 0.03 0.03 0.02 0.02 0.02 0.03 0.03 0.03 0.03 0.03 0.02 0.02 0.02 0.01 0.01 0.01 0.02 0.03 0.04 0.07 0.10 0.10 0.08 0.06 0.06 0.06 0.06 0.05 0.04 0.04 0.04 0.04
0.01 0.02 0.02 0.02 0.03 0.02 0.02 0.02 0.03 0.02 0.02 0.02 0.02 0.02 0.01 0.01 0.02 0.03 0.04 0.04 0.03 0.03 0.02 0.01 0.01 0.01 0.01 0.01 0.01 0.02 0.03 0.04 0.07 0.08 0.09 0.08 0.07 0.07 0.08 0.07 0.06 0.05 0.05
0.01 0.01 0.02 0.02 0.02 0.02 0.02 0.02 0.02 0.01 0.01 0.01 0.01 0.01 0.01 0.01 0.01 0.02 0.03 0.02 0.02 0.02 0.02 0.02 0.02 0.01 0.01 0.01 0.01 0.01 0.01 0.02 0.03 0.04 0.06 0.07 0.07 0.08 0.09 0.09 0.09 0.08 0.07
MSLP
1007.07 1007.26 1007.41 1007.47 1007.43 1007.29 1007.07 1006.79 1006.50 1006.24 1006.03 1005.88 1005.78 1005.72 1005.65 1005.56 1005.42 1005.23 1004.99 1004.71 1004.42 1004.14 1003.88 1003.66 1003.47 1003.32 1003.19 1003.08 1002.97 1002.89 1002.82 1002.79 1002.79 1002.83 1002.92 1003.05 1003.23 1003.43 1003.68 1003.95 1004.25 1004.59 1004.97
1007.48 1007.57 1007.62 1007.61 1007.51 1007.34 1007.10 1006.84 1006.57 1006.33 1006.14 1006.01 1005.94 1005.90 1005.86 1005.82 1005.74 1005.62 1005.45 1005.26 1005.04 1004.82 1004.61 1004.40 1004.21 1004.02 1003.84 1003.67 1003.51 1003.37 1003.25 1003.17 1003.14 1003.16 1003.23 1003.35 1003.50 1003.68 1003.89 1004.12 1004.38 1004.66 1004.98
1007.87 1007.87 1007.84 1007.75 1007.61 1007.41 1007.18 1006.93 1006.69 1006.48 1006.33 1006.22 1006.16 1006.13 1006.10 1006.08 1006.03 1005.95 1005.84 1005.70 1005.55 1005.38 1005.21 1005.04 1004.86 1004.68 1004.49 1004.30 1004.12 1003.95 1003.81 1003.72 1003.66 1003.67 1003.72 1003.81 1003.94 1004.09 1004.25 1004.43 1004.62 1004.83 1005.06
1008.20 1008.13 1008.02 1007.89 1007.71 1007.51 1007.29 1007.07 1006.88 1006.71 1006.58 1006.50 1006.45 1006.42 1006.40 1006.37 1006.32 1006.25 1006.17 1006.06 1005.95 1005.83 1005.71 1005.57 1005.43 1005.28 1005.11 1004.93 1004.76 1004.59 1004.46 1004.36 1004.30 1004.29 1004.33 1004.40 1004.50 1004.61 1004.72 1004.83 1004.94 1005.06 1005.19
1008.41 1008.29 1008.15 1007.99 1007.80 1007.61 1007.42 1007.24 1007.09 1006.97 1006.88 1006.82 1006.78 1006.75 1006.71 1006.67 1006.61 1006.53 1006.45 1006.36 1006.27 1006.18 1006.10 1006.01 1005.91 1005.79 1005.66 1005.52 1005.37 1005.23 1005.10 1005.01 1004.96 1004.94 1004.96 1005.01 1005.08 1005.14 1005.20 1005.25 1005.28 1005.32 1005.35
1008.48 1008.35 1008.20 1008.03 1007.85 1007.68 1007.53 1007.39 1007.29 1007.22 1007.17 1007.13 1007.10 1007.06 1007.01 1006.94 1006.86 1006.77 1006.67 1006.58 1006.50 1006.43 1006.38 1006.32 1006.26 1006.19 1006.10 1006.00 1005.88 1005.76 1005.66 1005.58 1005.53 1005.50 1005.51 1005.54 1005.57 1005.61 1005.62 1005.62 1005.60 1005.56 1005.52
1008.44 1008.31 1008.16 1008.00 1007.85 1007.70 1007.58 1007.49 1007.42 1007.39 1007.37 1007.35 1007.33 1007.29 1007.23 1007.14 1007.04 1006.93 1006.82 1006.72 1006.64 1006.58 1006.54 1006.51 1006.48 1006.44 1006.39 1006.31 1006.23 1006.14 1006.05 1005.97 1005.92 1005.89 1005.89 1005.90 1005.92 1005.92 1005.92 1005.89 1005.84 1005.77 1005.68
1008.31 1008.20 1008.07 1007.93 1007.78 1007.66 1007.56 1007.49 1007.46 1007.44 1007.45 1007.44 1007.43 1007.39 1007.33 1007.23 1007.11 1006.99 1006.87 1006.76 1006.68 1006.63 1006.59 1006.57 1006.56 1006.54 1006.51 1006.46 1006.39 1006.31 1006.23 1006.16 1006.11 1006.07 1006.06 1006.05 1006.06 1006.06 1006.06 1006.03 1005.98 1005.91 1005.82
1008.16 1008.07 1007.95 1007.81 1007.68 1007.56 1007.47 1007.40 1007.37 1007.37 1007.37 1007.38 1007.38 1007.34 1007.29 1007.20 1007.09 1006.96 1006.84 1006.74 1006.65 1006.59 1006.56 1006.54 1006.53 1006.51 1006.49 1006.44 1006.38 1006.31 1006.24 1006.16 1006.10 1006.06 1006.04 1006.03 1006.04 1006.05 1006.05 1006.04 1006.02 1005.98 1005.92
1008.04 1007.95 1007.83 1007.69 1007.54 1007.41 1007.30 1007.22 1007.18 1007.17 1007.17 1007.18 1007.19 1007.17 1007.13 1007.06 1006.98 1006.87 1006.77 1006.67 1006.59 1006.53 1006.49 1006.46 1006.44 1006.42 1006.39 1006.34 1006.28 1006.21 1006.13 1006.05 1005.99 1005.93 1005.90 1005.89 1005.90 1005.92 1005.95 1005.97 1005.99 1005.99 1005.99
1007.96 1007.86 1007.72 1007.56 1007.38 1007.22 1007.07 1006.97 1006.89 1006.86 1006.86 1006.88 1006.90 1006.91 1006.90 1006.88 1006.83 1006.76 1006.69 1006.61 1006.54 1006.48 1006.43 1006.38 1006.35 1006.31 1006.27 1006.22 1006.15 1006.08 1006.00 1005.92 1005.85 1005.79 1005.75 1005.73 1005.74 1005.76 1005.80 1005.86 1005.91 1005.97 1006.01
1007.94 1007.80 1007.62 1007.41 1007.19 1006.98 1006.79 1006.64 1006.54 1006.49 1006.48 1006.50 1006.54 1006.59 1006.64 1006.67 1006.67 1006.66 1006.62 1006.57 1006.52 1006.45 1006.40 1006.34 1006.29 1006.23 1006.18 1006.12 1006.05 1005.98 1005.91 1005.83 1005.76 1005.70 1005.65 1005.63 1005.62 1005.64 1005.69 1005.75 1005.83 1005.92 1006.01
1007.94 1007.74 1007.51 1007.24 1006.96 1006.69 1006.45 1006.26 1006.13 1006.06 1006.04 1006.08 1006.16 1006.26 1006.36 1006.45 1006.52 1006.56 1006.57 1006.56 1006.52 1006.46 1006.39 1006.32 1006.25 1006.18 1006.12 1006.06 1006.00 1005.94 1005.88 1005.82 1005.76 1005.70 1005.65 1005.62 1005.60 1005.60 1005.63 1005.68 1005.76 1005.86 1005.97
1007.92 1007.65 1007.34 1007.01 1006.67 1006.35 1006.06 1005.83 1005.67 1005.59 1005.58 1005.65 1005.76 1005.91 1006.08 1006.23 1006.37 1006.46 1006.52 1006.53 1006.50 1006.44 1006.36 1006.27 1006.19 1006.11 1006.04 1005.99 1005.95 1005.92 1005.89 1005.86 1005.82 1005.78 1005.74 1005.70 1005.66 1005.64 1005.64 1005.67 1005.73 1005.82 1005.93
1007.82 1007.47 1007.10 1006.71 1006.32 1005.95 1005.62 1005.37 1005.19 1005.11 1005.11 1005.20 1005.36 1005.56 1005.77 1005.98 1006.17 1006.31 1006.40 1006.42 1006.40 1006.33 1006.23 1006.13 1006.03 1005.94 1005.88 1005.84 1005.83 1005.84 1005.86 1005.88 1005.89 1005.88 1005.85 1005.82 1005.78 1005.74 1005.72 1005.72 1005.75 1005.81 1005.91
1007.62 1007.21 1006.78 1006.34 1005.91 1005.51 1005.17 1004.90 1004.72 1004.63 1004.65 1004.76 1004.94 1005.18 1005.43 1005.68 1005.90 1006.06 1006.15 1006.18 1006.14 1006.05 1005.93 1005.81 1005.69 1005.60 1005.55 1005.54 1005.57 1005.63 1005.71 1005.79 1005.85 1005.90 1005.92 1005.92 1005.89 1005.85 1005.82 1005.80 1005.81 1005.85 1005.93
1007.32 1006.87 1006.41 1005.95 1005.50 1005.09 1004.73 1004.46 1004.28 1004.20 1004.22 1004.34 1004.54 1004.78 1005.05 1005.30 1005.52 1005.68 1005.76 1005.76 1005.69 1005.58 1005.43 1005.27 1005.14 1005.05 1005.01 1005.03 1005.10 1005.22 1005.37 1005.53 1005.67 1005.80 1005.88 1005.93 1005.95 1005.94 1005.93 1005.92 1005.92 1005.96 1006.02
1006.94 1006.49 1006.02 1005.56 1005.11 1004.71 1004.36 1004.09 1003.91 1003.83 1003.85 1003.97 1004.15 1004.38 1004.63 1004.86 1005.04 1005.16 1005.20 1005.17 1005.06 1004.90 1004.71 1004.53 1004.39 1004.29 1004.27 1004.32 1004.45 1004.63 1004.85 1005.09 1005.33 1005.53 1005.70 1005.83 1005.92 1005.97 1006.01 1006.04 1006.07 1006.13 1006.20
1006.54 1006.10 1005.66 1005.22 1004.80 1004.42 1004.09 1003.83 1003.65 1003.56 1003.56 1003.65 1003.79 1003.98 1004.17 1004.34 1004.47 1004.53 1004.51 1004.42 1004.26 1004.06 1003.85 1003.65 1003.49 1003.40 1003.40 1003.49 1003.66 1003.91 1004.21 1004.52 1004.85 1005.15 1005.41 1005.63 1005.81 1005.95 1006.06 1006.16 1006.26 1006.36 1006.47
1006.14 1005.75 1005.35 1004.96 1004.58 1004.23 1003.92 1003.67 1003.48 1003.38 1003.34 1003.37 1003.46 1003.57 1003.69 1003.78 1003.83 1003.81 1003.73 1003.57 1003.37 1003.14 1002.90 1002.70 1002.55 1002.48 1002.51 1002.64 1002.87 1003.17 1003.53 1003.92 1004.32 1004.71 1005.06 1005.38 1005.65 1005.89 1006.10 1006.28 1006.46 1006.63 1006.79
1005.78 1005.43 1005.09 1004.75 1004.41 1004.10 1003.81 1003.57 1003.37 1003.23 1003.15 1003.11 1003.12 1003.14 1003.16 1003.16 1003.11 1003.02 1002.87 1002.67 1002.43 1002.18 1001.96 1001.77 1001.65 1001.63 1001.70 1001.88 1002.16 1002.52 1002.94 1003.39 1003.85 1004.31 1004.74 1005.13 1005.49 1005.82 1006.12 1006.40 1006.66 1006.90 1007.13
1005.43 1005.14 1004.85 1004.55 1004.26 1003.97 1003.70 1003.45 1003.23 1003.05 1002.91 1002.80 1002.71 1002.63 1002.55 1002.45 1002.32 1002.15 1001.95 1001.72 1001.48 1001.25 1001.05 1000.92 1000.87 1000.91 1001.05 1001.30 1001.64 1002.05 1002.52 1003.02 1003.53 1004.03 1004.51 1004.96 1005.38 1005.77 1006.14 1006.49 1006.83 1007.14 1007.42
1005.09 1004.83 1004.57 1004.31 1004.03 1003.76 1003.48 1003.22 1002.97 1002.75 1002.54 1002.34 1002.17 1001.99 1001.81 1001.62 1001.41 1001.19 1000.95 1000.72 1000.51 1000.33 1000.21 1000.17 1000.21 1000.35 1000.59 1000.93 1001.34 1001.82 1002.33 1002.86 1003.40 1003.92 1004.41 1004.88 1005.33 1005.76 1006.16 1006.55 1006.93 1007.28 1007.61
1004.70 1004.45 1004.20 1003.93 1003.66 1003.38 1003.10 1002.81 1002.53 1002.25 1001.97 1001.70 1001.44 1001.17 1000.91 1000.64 1000.37 1000.12 999.88 999.67 999.51 999.42 999.40 999.48 999.65 999.93 1000.29 1000.73 1001.24 1001.78 1002.34 1002.91 1003.45 1003.97 1004.46 1004.92 1005.35 1005.77 1006.17 1006.56 1006.93 1007.29 1007.62
1004.24 1003.97 1003.69 1003.41 1003.12 1002.82 1002.51 1002.19 1001.87 1001.53 1001.20 1000.86 1000.52 1000.18 999.84 999.52 999.21 998.94 998.72 998.56 998.48 998.49 998.60 998.82 999.15 999.57 1000.08 1000.65 1001.25 1001.88 1002.50 1003.09 1003.64 1004.14 1004.60 1005.02 1005.41 1005.78 1006.14 1006.49 1006.83 1007.15 1007.45
1003.71 1003.39 1003.07 1002.75 1002.42 1002.09 1001.75 1001.40 1001.03 1000.65 1000.27 999.87 999.47 999.07 998.68 998.32 997.99 997.72 997.52 997.42 997.43 997.55 997.80 998.17 998.66 999.24 999.89 1000.60 1001.32 1002.03 1002.70 1003.33 1003.88 1004.37 1004.79 1005.15 1005.48 1005.77 1006.05 1006.32 1006.59 1006.85 1007.09
Thickness
5802 5799 5796 5793 5790 5788 5785 5783 5782 5780 5779 5777 5775 5773 5771 5769 5767 5765 5764 5762 5759 5757 5756 5754 5752 5751 5749 5748 5747 5745 5742 5737 5729 5730 5732 5732 5731 5729 5727 5726 5725 5724 5722
5801 5798 5794 5791 5788 5785 5782 5781 5780 5777 5775 5774 5771 5769 5767 5765 5763 5760 5758 5757 5755 5753 5751 5748 5746 5746 5743 5741 5739 5737 5735 5733 5727 5722 5723 5724 5723 5722 5721 5721 5721 5720 5718
5800 5796 5791 5788 5785 5781 5779 5778 5776 5773 5771 5769 5767 5764 5762 5760 5757 5755 5753 5751 5750 5748 5746 5743 5741 5738 5735 5734 5732 5730 5728 5727 5723 5718 5716 5718 5717 5717 5715 5715 5716 5714 5714
5797 5792 5788 5784 5782 5779 5776 5774 5771 5769 5766 5764 5762 5759 5757 5754 5752 5749 5747 5745 5744 5742 5740 5738 5735 5733 5729 5728 5726 5723 5721 5718 5716 5713 5711 5711 5709 5709 5707 5704 5704 5705 5706
5791 5786 5782 5780 5778 5774 5771 5768 5766 5763 5761 5758 5755 5753 5751 5749 5746 5742 5740 5739 5737 5734 5733 5731 5729 5726 5724 5721 5720 5716 5713 5710 5707 5705 5703 5701 5700 5698 5697 5698 5696 5697 5698
5784 5780 5778 5774 5771 5768 5766 5763 5760 5757 5755 5752 5749 5747 5744 5743 5739 5737 5734 5732 5730 5727 5725 5723 5722 5719 5717 5714 5712 5710 5707 5703 5699 5697 5695 5693 5692 5692 5691 5690 5689 5687 5685
5778 5774 5771 5768 5765 5762 5760 5757 5753 5751 5749 5746 5744 5741 5737 5734 5732 5729 5727 5726 5724 5721 5719 5716 5715 5713 5710 5706 5704 5702 5700 5698 5695 5692 5689 5687 5686 5686 5684 5682 5681 5680 5679
5771 5767 5764 5762 5759 5757 5753 5750 5747 5745 5743 5740 5737 5734 5731 5727 5724 5722 5720 5719 5718 5715 5713 5711 5707 5703 5702 5699 5698 5695 5694 5692 5690 5688 5686 5684 5683 5681 5679 5678 5676 5676 5677
5764 5761 5759 5756 5752 5750 5746 5743 5741 5739 5736 5734 5731 5728 5725 5721 5718 5716 5713 5713 5711 5709 5707 5704 5701 5697 5694 5693 5690 5688 5687 5686 5685 5683 5681 5680 5678 5676 5674 5671 5669 5667 5665
5759 5756 5754 5751 5747 5743 5740 5737 5735 5732 5730 5728 5726 5723 5719 5716 5712 5710 5707 5707 5704 5702 5701 5697 5694 5691 5688 5685 5683 5681 5678 5678 5678 5677 5675 5674 5672 5670 5668 5665 5663 5659 5658
5754 5752 5749 5746 5742 5739 5734 5731 5728 5725 5723 5721 5718 5717 5715 5711 5707 5703 5701 5699 5697 5694 5693 5690 5687 5683 5681 5679 5677 5675 5673 5672 5671 5671 5670 5669 5667 5665 5663 5661 5658 5655 5652
5748 5745 5741 5738 5736 5733 5728 5724 5721 5718 5715 5713 5710 5708 5706 5703 5699 5695 5692 5690 5688 5686 5684 5682 5679 5676 5674 5672 5670 5669 5668 5666 5665 5664 5663 5661 5660 5659 5658 5656 5654 5652 5650
5739 5736 5734 5732 5729 5726 5721 5717 5714 5711 5708 5705 5703 5700 5698 5696 5692 5688 5684 5681 5679 5677 5675 5673 5671 5669 5667 5665 5664 5662 5660 5658 5657 5656 5654 5654 5654 5653 5652 5649 5648 5646 5644
5729 5727 5726 5724 5721 5719 5715 5711 5708 5704 5701 5698 5695 5692 5689 5686 5683 5679 5676 5673 5670 5668 5666 5665 5664 5662 5661 5659 5658 5656 5653 5652 5650 5649 5648 5647 5647 5645 5643 5642 5639 5637 5635
5721 5720 5719 5717 5714 5710 5706 5703 5700 5697 5694 5690 5687 5684 5680 5677 5672 5669 5667 5665 5662 5660 5657 5657 5656 5656 5654 5653 5652 5651 5649 5647 5644 5642 5640 5639 5638 5637 5635 5634 5632 5630 5627
5713 5711 5710 5709 5706 5703 5698 5693 5690 5687 5685 5682 5678 5675 5672 5668 5664 5661 5658 5655 5652 5650 5649 5649 5649 5648 5648 5647 5645 5644 5642 5639 5637 5635 5632 5630 5629 5628 5627 5626 5624 5622 5620
5705 5703 5702 5700 5698 5694 5690 5686 5681 5676 5673 5671 5668 5665 5662 5658 5655 5652 5649 5646 5644 5642 5641 5641 5641 5640 5640 5639 5638 5636 5634 5632 5630 5628 5625 5622 5621 5619 5618 5616 5614 5613 5611
5698 5695 5693 5691 5690 5687 5683 5680 5675 5671 5667 5664 5659 5656 5653 5650 5647 5644 5641 5638 5637 5635 5635 5634 5634 5633 5632 5631 5630 5628 5627 5624 5622 5619 5617 5615 5613 5611 5609 5607 5605 5603 5602
5688 5686 5684 5682 5680 5677 5675 5672 5669 5665 5661 5658 5654 5649 5645 5642 5638 5635 5632 5631 5631 5630 5629 5628 5627 5626 5625 5623 5622 5620 5618 5615 5613 5611 5609 5607 5605 5602 5600 5598 5596 5594 5592
5679 5676 5674 5673 5670 5668 5665 5663 5660 5657 5654 5650 5647 5643 5639 5636 5633 5630 5626 5625 5624 5622 5621 5620 5619 5617 5616 5615 5612 5609 5607 5605 5603 5601 5599 5597 5595 5593 5591 5589 5587 5585 5583
5671 5669 5665 5664 5662 5659 5656 5653 5651 5648 5646 5643 5640 5637 5632 5630 5628 5626 5623 5620 5617 5616 5614 5612 5610 5609 5607 5605 5602 5599 5597 5594 5592 5590 5588 5586 5584 5583 5582 5580 5578 5576 5574
5664 5662 5659 5655 5653 5651 5648 5646 5644 5641 5639 5636 5633 5630 5625 5624 5623 5620 5618 5615 5613 5610 5608 5606 5603 5600 5598 5596 5593 5589 5586 5584 5581 5579 5578 5576 5574 5573 5571 5569 5567 5566 5563
5656 5654 5651 5649 5646 5643 5642 5641 5638 5635 5632 5630 5627 5624 5619 5617 5615 5613 5611 5609 5606 5603 5601 5598 5595 5592 5590 5587 5584 5580 5576 5572 5570 5569 5567 5566 5563 5561 5560 5558 5556 5555 5553
5649 5647 5645 5642 5640 5638 5635 5633 5630 5627 5624 5622 5619 5616 5613 5610 5608 5605 5603 5601 5597 5594 5591 5589 5586 5583 5580 5576 5573 5569 5564 5561 5559 5558 5556 5554 5553 5551 5550 5548 5547 5545 5544
5641 5640 5639 5636 5633 5630 5628 5625 5622 5620 5617 5614 5611 5609 5606 5603 5600 5597 5594 5592 5589 5585 5582 5580 5577 5573 5569 5565 5561 5557 5553 5550 5547 5545 5544 5543 5542 5540 5539 5538 5536 5536 5535
5633 5632 5631 5629 5626 5623 5620 5617 5615 5612 5610 5607 5604 5601 5597 5594 5592 5589 5585 5582 5580 5577 5573 5570 5567 5564 5560 5555 5550 5546 5542 5539 5537 5534 5532 5531 5531 5530 5528 5527 5526 5526 5525